www.pogodaiklimat.ru

Погода и климат >> Архив погоды >> Мадагаскар >> Анциранана


ПОГОДА в Анциранане

  • Прогноз погоды в Анциранане
  • Монитор погоды в Анциранане

АРХИВ ПОГОДЫ в Анциранане

Время (UTC), дата Ветер
(напр.,м/с)
 
Видим.   Явления Облачность Т
(С)
Тd
(С)
f
(%)
Тe
(С)
Тes
(С)
Комфортность P
(гПа)
Po
(гПа)
Тmin
(С)
Tmax
(С)
R
(мм)
R24
(мм)
S
(см)
18 14.03 штиль 0 30 км зарница {дождь} 8/5 600 м
[Cb cap Ci sp]
+25.0 +23.6 92 +34 +34 очень
душно
1013.6 1001.7 +32.0 3
00 15.03 штиль 0 30 км 5/3 600 м
[Cu Sc Ci sp]
+23.8 +22.3 91 +31 +31 очень
душно
1012.4 1000.5
03 15.03 штиль 0 40 км 8/6 600 м
[Cb cap Ci sp]
+24.0 +22.5 91 +31 +31 очень
душно
1012.1 1000.2
09 15.03 ЮВ 5 40 км 6/4 600 м
[Cb cap Ci sp]
+32.0 +21.8 55 +41 +47 опасность
перегрева
1011.2 999.4
12 15.03 штиль 0 40 км 4/4 600 м
[Cb cap Ci sp]
+30.0 +21.5 60 +38 +45 очень
душно
1009.3 997.5
15 15.03 штиль 0 30 км 5/3 600 м
[Cb cap Ci sp]
+27.0 +23.8 83 +37 +37 очень
душно
1011.1 999.2 +32.0
18 15.03 штиль 0 30 км слаб. дождь 9/9 600 м
[Cu Sc]
+25.0 +23.3 90 +33 +33 очень
душно
1012.9 1001.0 +32.0 1
00 16.03 Ю 3 30 км 8/4 600 м
[Cu Sc Ci sp]
+24.0 +22.5 91 +31 +31 очень
душно
1011.1 999.2 2
03 16.03 штиль 0 30 км 5/4 600 м
[Cu Sc Ci sp]
+24.0 +21.7 87 +31 +31 очень
душно
1011.5 999.6 3
06 16.03 ЮВ 3 40 км 6/1 600 м
[Cu Sc Ci sp]
+29.2 +21.5 63 +37 +45 очень
душно
1012.8 1000.9 +23.4 +32.0 3
09 16.03 Ю 3 40 км 6/4 600 м
[Cu Sc Ci sp]
+30.1 +22.0 62 +39 +48 очень
душно
1011.3 999.5
12 16.03 СЗ 2 40 км 6/4 600 м
[Cu Sc Ci sp]
+26.3 +23.6 85 +36 +36 очень
душно
1007.8 995.6
15 16.03 штиль 0 30 км 5/3 600 м
[Cu Sc Ci sp]
+27.8 +23.8 79 +38 +38 очень
душно
1010.7 998.8 +32.2
18 16.03 штиль 0 30 км 8/4 600 м
[Cu Sc Ci sp]
+25.6 +23.3 87 +34 +34 очень
душно
1012.4 1000.5 +32.2
00 17.03 ЮВ 3 30 км 4/4 600 м
[Cu Sc]
+24.8 +21.9 84 +32 +32 очень
душно
1010.9 999.1
03 17.03 Ю 3 40 км 4/4 600 м
[Cu Sc]
+24.6 +21.6 83 +31 +31 очень
душно
1011.4 999.5
06 17.03 ЮВ 6 40 км 4/4 600 м
[Cb cap Ci sp]
+29.0 +22.2 67 +38 +40 очень
душно
1013.0 1001.1 +23.5 +32.2
09 17.03 ЮВ 4 40 км 6/6 600 м
[Cb cap Ci sp]
+31.0 +22.3 60 +40 +46 очень
душно
1011.9 1000.1
12 17.03 штиль 0 40 км 4/4 600 м
[Cb cap Ci sp]
+30.6 +23.3 65 +41 +48 опасность
перегрева
1010.1 998.3
15 17.03 штиль 0 25 км осадки на расстоянии 8/5 600 м
[Cu Sc Ci sp]
+27.0 +23.5 81 +37 +37 очень
душно
1011.6 999.7 +32.0
18 17.03 ЮВ 3 30 км 8/8 600 м
[Cu Sc Ci sp]
+25.0 +20.5 76 +31 +31 очень
душно
1013.6 1001.7 +32.0
00 18.03 штиль 0 30 км 5/4 600 м
[Cu Sc Ci sp]
+23.8 +20.8 83 +30 +30 очень
душно
1012.0 1000.1
03 18.03 ЮВ 3 40 км 5/3 600 м
[Cb cap Ci sp]
+23.2 +20.8 86 +31 +31 очень
душно
1011.3 999.4
06 18.03 ЮВ 4 40 км 3/3 600 м
[Cu Sc Ci sp]
+29.4 +23.3 70 +40 +45 очень
душно
1013.5 1001.6 +23.0 +32.0
09 18.03 ЮВ 5 40 км 4/4 600 м
[Cu Sc Ci sp]
+31.0 +22.1 59 +40 +46 очень
душно
1012.1 1000.3
12 18.03 З 6 40 км 6/5 600 м
[Cu Sc Ci sp]
+28.8 +23.0 71 +39 +40 очень
душно
1010.8 998.5
15 18.03 штиль 0 40 км 6/4 600 м
[Cu Sc Ci sp]
+27.5 +23.9 81 +38 +38 очень
душно
1011.7 999.8 +32.0
18 18.03 штиль 0 30 км 6/3 600 м
[Cu Sc Ci sp]
+24.0 +21.9 88 +31 +31 очень
душно
1012.9 1001.0 +32.0
00 19.03 штиль 0 30 км 4/3 600 м
[Cu Sc Ci sp]
+22.0 +19.9 88 +28 +28 душно 1010.6 998.7
03 19.03 штиль 0 30 км 4/3 600 м
[Cu Sc Ci sp]
+21.8 +19.0 84 +27 +27 душно 1011.4 999.5
06 19.03 Ю 3 40 км 5/1 600 м
[Cu Sc Ci sp]
+28.6 +21.8 67 +37 +45 очень
душно
1011.8 999.9 +21.5 +32.0
09 19.03 ЮВ 5 40 км 6/4 600 м
[Cu Sc Ci sp]
+30.8 +22.4 61 +40 +46 очень
душно
1010.5 998.7
12 19.03 В 3 30 км осадки на расстоянии 8/5 600 м
[Cb cap Ci sp]
+31.6 +22.7 59 +41 +44 опасность
перегрева
1008.7 996.9
15 19.03 штиль 0 30 км 8/5 600 м
[Cb cap Ci sp]
+28.0 +23.9 78 +39 +39 очень
душно
1010.1 998.2 +32.6
18 19.03 ЮВ 3 30 км зарница 6/5 600 м
[Cb cap Ci sp]
+27.0 +23.8 83 +37 +37 очень
душно
1011.6 999.8 +32.6
00 20.03 штиль 0 30 км осадки на расстоянии 6/4 600 м
[Cu Sc Ci sp]
+24.0 +21.9 88 +31 +31 очень
душно
1000.4 998.5 12
03 20.03 штиль 0 40 км 5/4 600 м
[Cb cap Ci sp]
+23.6 +21.8 90 +30 +30 очень
душно
1010.2 998.3 12
06 20.03 ЮВ 4 40 км 4/3 600 м
[Cb cap Ci sp]
+30.0 +23.3 67 +40 +46 очень
душно
1011.1 999.3 +23.0 +32.6 12
09 20.03 В 4 40 км 5/4 600 м
[Cb cap Ci sp]
+32.0 +23.4 60 +43 +51 опасность
перегрева
1009.3 997.5
12 20.03 З 4 30 км 5/4 600 м
[Cb cap Ci ing]
+27.0 +14.1 45 +29 +33 жарко 1007.5 995.7
15 20.03 штиль 0 25 км гроза без осадков 5/4 600 м
[Cb cap Ci ing]
+26.5 +24.4 88 +37 +37 очень
душно
1008.9 997.0 +32.5
18 20.03 ЮВ 3 30 км зарница 4/3 600 м
[Cb cap Ci ing]
+25.7 +23.7 89 +35 +35 очень
душно
1010.6 998.8 +32.5
00 21.03 штиль 0 30 км 4/3 600 м
[Cu Sc Ci sp]
+25.6 +21.5 78 +33 +33 очень
душно
1008.9 997.0
03 21.03 штиль 0 40 км 5/3 600 м
[Cb cap Ci sp]
+23.5 +21.2 87 +30 +30 очень
душно
1009.6 997.7
06 21.03 ЮВ 3 40 км 6/1 600 м
[Cu Sc Ci sp]
+30.0 +21.0 59 +38 +45 очень
душно
1011.0 999.2 +23.5 +32.5
09 21.03 штиль 0 40 км 5/4 600 м
[Cu Sc Ci sp]
+32.0 +22.7 58 +42 +58 опасность
перегрева
1010.4 998.6
12 21.03 СЗ 3 40 км 6/5 600 м
[Cu Sc Ci sp]
+31.0 +23.9 66 +43 +46 опасность
перегрева
1008.7 996.9
15 21.03 штиль 0 30 км 8/8 600 м
[Cu Sc]
+28.0 +24.5 81 +39 +39 очень
душно
1009.7 997.9 +33.5

 

Местоположение метеостанции Анциранана (Мадагаскар): широта -12.35 долгота 49.30 высота над уровнем моря 105 м.

В архиве по умолчанию представлена погода в Анциранане за последнюю неделю. Архивные данные за месяц целиком и за предыдущие месяцы, начиная с января 2011 года, Вы можете получить, выбрав интересующий диапазон дат из раскрывающегося списка и нажав кнопку "Ввод!".


*Определитесь, кто Вы:
робот инопланетянин человек

Внимание! Время в таблицах - всемирное. Для получения местного времени необходимо прибавить поправку, которая равна 3 ч.

Смотрите также архив погоды в соседних городах и на ближайших метеорологических станциях:

Погода в Аэропорту Fascene (Мадагаскар) (151 км)
Погода в Самбаве (Мадагаскар) (234 км)
Погода на Острове Глорьёз (Реюньон) (247 км)
Погода в Анталахе (Мадагаскар) (300 км)
Погода в Анцухихи (Мадагаскар) (316 км)
Погода в Дзаудзи (Коморские Острова) (439 км)
Погода в Махадзанге (Мадагаскар) (487 км)
Погода на Нуси Бураха (Мадагаскар) (529 км)
Погода в Амбоайтзилаозане (Мадагаскар) (594 км)
Погода в Туамасине (Мадагаскар) (641 км)

Пояснения к столбцам:

Ветер - указаны скорость ветра в м/с - средняя за 10 мин, порывы в срок и между сроками (в фигурных скобках) и направление, откуда дует ветер: С - северный, СВ - северо-восточный, В - восточный, ЮВ - юго-восточный, Ю - южный, ЮЗ - юго-западный, З - западный, СЗ - северо-западный.
Видимость - горизонтальная дальность видимости в метрах или километрах. При видимости от 1 до 10 км при отсутствии осадков обычно наблюдается дымка, при ухудшении видимости до 1 км и менее - туман. В сухую погоду видимость может ухудшаться дымом, пылью или мглою.
Явления - указаны атмосферные явления, наблюдавшиеся в срок или в последний час перед сроком; фигурными скобками обозначены явления, наблюдавшиеся между сроками (за 1-3 часа до срока); квадратными скобками обозначены град или гололедные отложения с указанием их диаметра в мм.
Облачность - указаны через наклонную черту общая и нижняя облачность в баллах и высота нижней границы облаков в метрах; квадратными скобками обозначены формы облаков: Ci - перистые, Cs - перисто-слоистые, Cc - перисто-кучевые, Ac - высококучевые, As - высокослоистые, Sc - слоисто-кучевые, Ns - слоисто-дождевые, Cu - кучевые, Cb - кучево-дождевые. Подробнее классификацию облаков см. в Атласе облаков (PDF).
T - Температура воздуха - температура, измеренная на высоте 2 м над землей.
Td - Температура точки росы - температура, при понижении до которой содержащийся в воздухе водяной пар достигнет насыщения.
f - Относительная влажность воздуха - влажноcть воздуха, измеренная на высоте 2 м над землей.
Te - Эффективная температура - температура, которую ощущает одетый по сезону человек в тени. Характеристика душности погоды. При расчете учитывается влияние влажности воздуха и скорости ветра на теплоощущения человека.
Tes - Эффективная температура на солнце - температура, которую ощущает человек, с поправкой на солнечный нагрев. Характеристика знойности погоды. Зависит от высоты солнца над горизонтом, облачности и скорости ветра. Ночью, в пасмурную погоду, а также при ветре 12 м/с и более поправка равна нулю.
P - Атмосферное давление - приведенное к уровню моря атмосферное давление.
Po - Атмосферное давление - измеренное на уровне метеостанции атмосферное давление.
Tmin - Минимальная температура - минимум температуры воздуха на высоте 2 м над землей.
Tmax - Максимальная температура - максимум температуры воздуха на высоте 2 м над землей.
R - Количество осадков - Количество выпавших осадков за период времени, мм. При наведении курсора мыши на число - период времени, за который выпало указанное количество осадков.
R24 - Количество осадков - Количество выпавших осадков за 24 часа, мм.
S - Снежный покров - Высота снежного покрова, см. При наведении курсора мыши на число - состояние снежного покрова и степень покрытия местности в баллах.